COSMOS 1818 COOLANT, 36936

Orbit data source: Space-Track

COSMOS 1818 COOLANT, 36936 is space debris in LEO originally from a launch on Sun, 01 Feb 1987 UTC launched from the Tyuratam Missile And Space Complex (TTMTR). Debris objects in space refer to the collection of defunct objects orbiting the Earth. Examples of debris include non-operational satellites, rocket bodies, and fragments generated from explosions, collisions, or faulty payload assembly.

Loading next visibility...
Identifier
36936, 1987-011Q
Orbit
LEO
Country
Flag of CISCIS
Related business
Manufacturer
Unknown
Mission
Spacecraft
Bus & Motor
Unknown
Mass
Unknown
Launch date (UTC)
1987-02-01 (39 years ago)
Launch vehicle
Unknown
Launch site
Tyuratam Missile And Space Complex (TTMTR)
Object type
Payload
Rocket body
Debris
Shape & HBR
Unknown shape, 0.1 m
Radar Cross Section
Small (<0.1 m²)

Expand to show TLE details & history
Last TLE update: 1 week ago

TLE from 1 week ago
0 COSMOS 1818 COOLANT
1 36936U 87011Q   26165.27595157  .00000687  00000-0  24828-3 0  9993
2 36936  64.9978 170.8190 0018916 285.5262  74.3738 14.40278002283578
Epoch: 2026-06-14T06:37Z
TLE epoch observation values (Epoch: 2026-06-14T06:37:22.215Z)
Latitude
-0.00004°
Longitude
168.8974°
Altitude
755.948 km
Speed
7.479 km/s
True Right ascension
11h 23m 16s
True Declination
0° 00' 00"
Sunlit
Object was in daylight at epoch
Visualization orbit readout
Latitude
Unknown
Longitude
Unknown
Altitude
Unknown
Speed
Unknown
Apparent Right ascension
Unknown
Apparent Declination
Unknown
Sunlit
N/A
Visualization observer readout
Local Sidereal Time
23:08:01
Azimuth
Unknown
Elevation
Unknown
Doppler factor
Unknown
Orbital elements
Apogee altitude
769.648 km
Perigee altitude
742.657 km
Semi-major axis
7,134.289 km
Eccentricity
0.00189
Inclination
64.9978°
RAAN
170.819°
Arg. of periapsis
285.5262°
True anomaly
74.58268°
Mean anomaly
74.3738°
Eccentric anomaly
74.47823°
Mean motion
3.60178 °/min
Orbital period
99.95 mins
BSTAR
0.00024828
Loading maneuver chart data...
Computing Atmospheric mass density...

Documentation

Showing up to 5 results
|